Find Starlink 3956

NORAD ID: 52560 Int'l Des: 2022-051 Owner: SPXS Country: US Constellation: starlink operational
LEOCIRCULAR

实时位置

正在加载3D地球...

关于 Starlink 3956

正在加载描述...

即将过境

Passes for default location (London). Set your location on the main map for personalized predictions.

高度历史

Loading altitude history...

两行轨道根数

1 52560U 22051AD 26124.55506478 .00001298 00000-0 99634-4 0 9998
2 52560 53.2169 228.3317 0001209 89.7504 270.3627 15.08838337220015
Epoch: May 4, 2026 • Age: 7 hours

当前状态

高度 544.5 km
速度 7.60 km/s
星下点 48.69°N, 175.98°W
发射日期 May 13, 2022
运行时间 3.9 years
类型 internet

技术详情

分类 Payload
质量 297.00 kg
干质量 275.00 kg
总质量 297.00 kg
长度 0.20 m
直径 2.80 m
跨度 9.00 m
形状 Box + pan
制造商 SPXS
平台类型 Starlink
阶段状态 In Orbit
所有者/国家 SPXS/US

Most Searched